Flag for U.S.A. Weather past 2 weeks in Atlantic City, New Jersey, U.S.A.

Now
80 °F

Sunny.


Feels Like: 82 °F
Forecast: 64 / 74 °F
Wind: 16 mph from Southwest

Location: Atlantic City International Airport

Current Time: May 27, 2015 at 2:04:04 PM

Latest Report: May 27, 2015 at 12:54 PM


Visibility: 10 mi

Pressure: 30.18 "Hg

Humidity: 62%

Dew point: 66 °F

Location of Atlantic CityLocation

Historic Weather in Atlantic City — Graph

°F

Atlantic City temperature yesterday

Maximum temperature yesterday: 83 °F (at 12:54 PM)
Minimum temperature yesterday: 63 °F (at 2:54 AM)
Average temperature yesterday: 72 °F

Past Weeks' High & Low Weather Summary

 TemperatureHumidityPressure
High89 °F (May 12, 2:54 PM)100% (May 19, 5:54 AM)30.44 "Hg (May 19, 5:54 AM)
Low45 °F (May 21, 12:54 AM)22% (May 15, 1:54 PM)29.80 "Hg (May 12, 5:54 PM)
Average66 °F63%30.14 "Hg
* Reported May 12 12:54 PM — May 27 12:54 PM, Atlantic City, Weather by CustomWeather, © 2015

Note: Actual official high and low records may vary slightly from our data, if they occured in-between our weather recording intervals... More about our weather records

Advertising

Atlantic City weather history for previous 24 hours

 ConditionsComfort  
Time TempWeatherWind HumidityBarometerVisibility
12:54 PM
Wed, May 27
80 °FSunny.16 mph62%30.18 "Hg10 mi
11:54 AM78 °FSunny.14 mph66%30.19 "Hg10 mi
10:54 AM80 °FPartly sunny.9 mph64%30.20 "Hg10 mi
9:54 AM79 °FPartly sunny.10 mph67%30.19 "Hg10 mi
8:54 AM75 °FPassing clouds.12 mph74%30.20 "Hg10 mi
7:54 AM72 °FSunny.10 mph78%30.19 "Hg10 mi
6:54 AM67 °FSunny.7 mph87%30.19 "Hg10 mi
5:54 AM65 °FClear.6 mph91%30.19 "Hg8 mi
4:54 AM65 °FClear.7 mph91%30.18 "Hg10 mi
3:54 AM66 °FClear.8 mph87%30.18 "Hg10 mi
2:54 AM66 °FPassing clouds.8 mph87%30.19 "Hg10 mi
1:54 AM67 °FClear.8 mph81%30.19 "Hg10 mi
12:54 AM68 °FPassing clouds.15 mph78%30.19 "Hg10 mi
11:54 PM
Tue, May 26
69 °FPassing clouds.17 mph76%30.20 "Hg10 mi
10:54 PM69 °FClear.14 mph76%30.21 "Hg10 mi
9:54 PM69 °FPassing clouds.17 mph79%30.21 "Hg10 mi
8:54 PM70 °FSunny.13 mph76%30.19 "Hg10 mi
7:54 PM70 °FSunny.15 mph73%30.19 "Hg10 mi
6:54 PM73 °FSunny.18 mph66%30.18 "Hg10 mi
5:54 PM76 °FSunny.18 mph60%30.19 "Hg10 mi
4:54 PM79 °FPassing clouds.20 mph56%30.20 "Hg10 mi
3:54 PM80 °FPassing clouds.15 mph56%30.19 "Hg10 mi
2:54 PM81 °FScattered clouds.14 mph54%30.21 "Hg10 mi
Weather by CustomWeather, © 2015

See weather overviewHow to use our weather pages